Terminal Aerodrome Forecast
Issued by NWS Melbourne, FL

Home | Current Version | Previous Version | Text Only | Print | Product List | Glossary On
Versions: 1 2 3 4 5 6 7 8 9 10 11 12
000
FTUS42 KMLB 020542
TAFDAB
TAF
KDAB 020542Z 0206/0306 13004KT P6SM SCT250
     FM021400 18008KT P6SM FEW040 SCT250
     FM021730 15009KT P6SM SCT035 SCT250
     FM021930 12009KT P6SM SCT035 SCT250=

USA.gov is the U.S. government's official web portal to all federal, state and local government web resources and services.